Location: Prairie State College
(41.5244°N, 87.6382°W)
Time: 21:54:00
(UTC-05:00)

Amateur Radio Satellites - All Passes

Search period start: 27 May 2017 21:23
Search period end: 28 May 2017 21:23
Location: Prairie State College, 41.5244°N, 87.6382°W

Satellite Date Start Highest point End Downlink Frequencies (MHz)
Time Altitude Azimuth
STRAND 1 27 May 21:28:14 21:32:27 26° 295° (WNW) 21:36:41 437.568
ISS 27 May 21:39:07 21:42:03 29° 336° (NNW) 21:45:00 437.550
M-CUBED/EXP-1 PRIME 27 May 21:44:30 21:47:49 87° 282° (WNW) 21:51:03 437.505
UWE-3 27 May 21:45:39 21:46:34 11° 271° (W) 21:47:29 435.000/436.395/437.385
PRISM 27 May 21:48:59 21:51:39 17° 93° (E) 21:54:17 437.425
UNISAT 6 27 May 22:04:16 22:07:59 23° 94° (E) 22:11:44 437.425
Oscar 11 27 May 22:11:27 22:13:41 14° 269° (W) 22:15:55 .
EO-88 27 May 22:16:57 22:20:28 46° 261° (W) 22:24:02 145.990 - 145.960
SO-50 27 May 22:32:52 22:37:28 83° 304° (NW) 22:42:02 436.795
Tancredo 1 27 May 22:32:53 22:34:37 14° 351° (N) 22:36:21 437.200
FO-29 27 May 22:33:41 22:40:05 53° 100° (E) 22:47:14 435.910
DELFI C3 27 May 22:33:43 22:36:56 23° 265° (W) 22:40:08 145.870
ESTCUBE 1 27 May 22:36:42 22:40:21 24° 67° (ENE) 22:44:01 437.505/2401.250
LO-87 27 May 22:55:41 22:59:11 61° 75° (ENE) 23:02:41 145.935 - 145.965
TIGRISAT 27 May 23:08:02 23:12:39 82° 285° (WNW) 23:17:21 435.000
SPROUT 27 May 23:12:01 23:14:17 14° 63° (ENE) 23:16:32 437.525
ISS 27 May 23:17:26 23:19:21 14° 356° (N) 23:21:16 437.550
PRISM 27 May 23:23:18 23:27:04 37° 289° (WNW) 23:30:49 437.425
VELOX 1 27 May 23:26:55 23:30:16 22° 66° (ENE) 23:33:37 145.980
UNISAT 6 27 May 23:40:32 23:44:44 35° 290° (WNW) 23:48:58 437.425
EO-79 27 May 23:52:29 23:55:46 21° 94° (E) 23:59:02 145.935-145.965
DX 1 27 May 23:58:34 00:01:21 17° 64° (ENE) 00:04:10 434.975-435.025
50 SAT 28 May 00:00:12 00:02:45 20° 69° (ENE) 00:05:19 437.505
Tancredo 1 28 May 00:09:27 00:11:19 15° 11° (NNE) 00:13:12 437.200
ESTCUBE 1 28 May 00:12:53 00:16:59 33° 263° (W) 00:21:06 437.505/2401.250
AIST 2D 28 May 00:13:02 00:16:38 84° 103° (ESE) 00:20:11 435.315
SO-50 28 May 00:16:15 00:18:38 14° 323° (NW) 00:20:59 436.795
FO-29 28 May 00:19:25 00:24:52 30° 295° (WNW) 00:30:51 435.910
RS-15 28 May 00:19:57 00:28:05 21° 98° (E) 00:36:18 29.354- 29.394
NANOSAT C BR1 28 May 00:36:07 00:40:20 60° 101° (E) 00:44:32 145.865
POLYITAN 1 28 May 00:41:58 00:46:16 78° 102° (ESE) 00:50:33 437.675
SPROUT 28 May 00:45:36 00:49:43 53° 260° (W) 00:53:54 437.525
DUCHIFAT 1 28 May 00:46:01 00:50:15 69° 102° (ESE) 00:54:28 145.980
QB50P2 28 May 00:50:46 00:55:03 77° 283° (WNW) 00:59:18 145.880/145.840
YUBILEINY 28 May 00:54:13 01:02:36 55° 90° (E) 01:11:04 435.215
ISS 28 May 00:54:18 00:56:48 19° 16° (NNE) 00:59:16 437.550
BUGSAT 1 28 May 00:58:46 01:02:22 28° 96° (E) 01:05:59 437.445
VELOX 1 28 May 01:02:25 01:06:28 36° 262° (W) 01:10:34 145.980
UKube-1 28 May 01:22:04 01:26:22 89° 231° (SW) 01:30:43 .
Oscar 19 28 May 01:24:19 01:28:10 21° 93° (E) 01:31:58 437.125/150
EO-79 28 May 01:27:45 01:31:34 33° 290° (WNW) 01:35:24 145.935-145.965
BEESAT 28 May 01:31:20 01:32:56 12° 59° (ENE) 01:34:33 436.000
50 SAT 28 May 01:32:43 01:35:30 23° 264° (W) 01:38:18 437.505
DX 1 28 May 01:33:00 01:37:11 46° 260° (W) 01:41:22 434.975-435.025
Tancredo 1 28 May 01:44:40 01:47:39 47° 31° (NNE) 01:50:37 437.200
NANOSAT C BR1 28 May 02:13:33 02:15:32 13° 297° (WNW) 02:17:30 145.865
POLYITAN 1 28 May 02:20:37 02:21:25 10° 299° (WNW) 02:22:13 437.675
DUCHIFAT 1 28 May 02:23:57 02:25:20 11° 298° (WNW) 02:26:43 145.980
RS-15 28 May 02:26:32 02:38:38 83° 119° (ESE) 02:51:04 29.354- 29.394
ISS 28 May 02:30:24 02:33:42 81° 34° (NE) 02:36:58 437.550
ITUPSAT 1 28 May 02:33:00 02:37:31 45° 70° (ENE) 02:42:05 437.325
BUGSAT 1 28 May 02:34:16 02:37:36 24° 292° (WNW) 02:40:58 437.445
MOZHAYETS 4 28 May 02:35:02 02:38:50 26° 67° (ENE) 02:42:38
YUBILEINY 28 May 02:52:08 02:59:45 33° 290° (WNW) 03:07:31 435.215
Gurwin Techsat 1B 28 May 02:52:16 02:57:38 84° 104° (ESE) 03:02:57 435.225
Oscar 19 28 May 03:02:46 03:07:43 47° 290° (WNW) 03:12:36 437.125/150
BEESAT 28 May 03:05:14 03:09:59 85° 255° (WSW) 03:14:47 436.000
O/OREOS (USA 219) 28 May 03:12:10 03:16:04 28° 103° (ESE) 03:19:59 437.305
PCSat 28 May 03:12:42 03:17:19 27° 48° (NE) 03:21:55 145.827
KKS-1 28 May 03:19:35 03:21:05 12° 61° (ENE) 03:22:35 437.445
Tancredo 1 28 May 03:20:59 03:23:10 18° 227° (SW) 03:25:20 437.200
CUBESAT XI-V 28 May 03:26:05 03:29:04 17° 64° (ENE) 03:32:04 437.345
AO-7 28 May 04:04:10 04:12:15 50° 102° (ESE) 04:20:18 .
ITAMSAT 1 28 May 04:07:27 04:12:37 59° 101° (ESE) 04:17:46 435.822/435.867
ISS 28 May 04:08:35 04:09:45 11° 231° (SW) 04:10:53 437.550
AO-85 28 May 04:10:58 04:15:01 49° 119° (ESE) 04:18:52 145.980
MOZHAYETS 4 28 May 04:11:43 04:15:50 32° 264° (W) 04:19:59
ITUPSAT 1 28 May 04:12:07 04:15:33 19° 267° (W) 04:19:00 437.325
BEESAT 3 28 May 04:21:02 04:23:55 20° 112° (ESE) 04:26:50 437.485
Gurwin Techsat 1B 28 May 04:34:14 04:36:50 14° 301° (WNW) 04:39:26 435.225
RS-15 28 May 04:41:33 04:52:39 38° 326° (NW) 05:03:53 29.354- 29.394
O/OREOS (USA 219) 28 May 04:51:22 04:55:23 30° 301° (WNW) 04:59:26 437.305
KKS-1 28 May 04:52:36 04:57:00 75° 256° (WSW) 05:01:28 437.445
PCSat 28 May 04:55:43 05:00:56 48° 247° (WSW) 05:06:06 145.827
CUBESAT XI-V 28 May 05:01:23 05:06:00 54° 260° (W) 05:10:38 437.345
STARS 28 May 05:18:54 05:23:14 90° 143° (SE) 05:27:38 437.465
SO-50 28 May 05:24:56 05:27:24 14° 38° (NE) 05:29:52 436.795
DOVE 4 28 May 05:38:26 05:41:03 16° 93° (E) 05:43:43 437.250
BEESAT 2 28 May 05:40:55 05:44:46 53° 119° (ESE) 05:48:42 435.950
ITAMSAT 1 28 May 05:48:04 05:51:36 19° 298° (WNW) 05:55:07 435.822/435.867
AO-85 28 May 05:52:46 05:55:37 18° 315° (NW) 05:58:24 145.980
AO-7 28 May 05:57:16 06:04:47 39° 300° (WNW) 06:12:19 .
BEESAT 3 28 May 05:57:33 06:01:15 37° 309° (NW) 06:05:01 437.485
CUTE-I 28 May 06:15:11 06:19:17 22° 93° (E) 06:23:23 437.470
LilacSat-2 28 May 06:18:52 06:22:05 24° 95° (E) 06:25:16 437.200
XW-2D 28 May 06:50:39 06:54:28 59° 101° (E) 06:58:15 145.860 - 145.880
NO-84 28 May 06:56:45 06:58:59 14° 123° (ESE) 07:01:14 435.350 FM
M-CUBED/EXP-1 PRIME 28 May 06:58:34 06:59:54 11° 59° (ENE) 07:01:12 437.505
XW-2B 28 May 06:58:37 07:02:28 72° 101° (E) 07:06:17 145.730 - 145.750
RS-15 28 May 07:00:54 07:10:11 23° 360° (N) 07:19:22 29.354- 29.394
NUDT-PHONESAT 28 May 07:03:37 07:07:23 64° 101° (E) 07:11:07 437.300
SO-50 28 May 07:03:58 07:08:31 89° 58° (ENE) 07:13:03 436.795
STRAND 1 28 May 07:04:33 07:09:30 56° 72° (ENE) 07:14:31 437.568
XW-2F 28 May 07:09:58 07:13:50 84° 281° (W) 07:17:38 145.980 - 146.000
XW-2C 28 May 07:12:23 07:16:14 75° 284° (WNW) 07:20:04 145.795 - 145.815
KAITUO 1B 28 May 07:14:36 07:18:25 90° 127° (SE) 07:22:12 145.475/437.950
DOVE 4 28 May 07:15:01 07:18:56 41° 288° (WNW) 07:22:58 437.250
BEESAT 2 28 May 07:20:06 07:22:51 17° 317° (NW) 07:25:36 435.950
SEEDS 28 May 07:38:58 07:41:53 18° 93° (E) 07:44:45 437.485
HO-68 28 May 07:39:51 07:46:26 37° 97° (E) 07:52:58 435.675
CUBEBUG 2 28 May 07:48:39 07:52:02 20° 93° (E) 07:55:27 437.445
LilacSat-2 28 May 07:53:08 07:56:16 24° 291° (WNW) 07:59:22 437.200
CUTE-I 28 May 07:54:26 07:59:33 47° 290° (WNW) 08:04:39 437.470
UWE-3 28 May 07:56:02 07:58:29 14° 90° (E) 08:00:58 435.000/436.395/437.385
XW-2D 28 May 08:27:08 08:28:08 11° 297° (WNW) 08:29:07 145.860 - 145.880
CUTE 1.7 + AOD 2 28 May 08:27:44 08:32:01 80° 283° (WNW) 08:36:15 437.475
M-CUBED/EXP-1 PRIME 28 May 08:29:44 08:33:56 68° 254° (WSW) 08:37:50 437.505
NO-84 28 May 08:31:42 08:36:06 88° 313° (NW) 08:40:25 435.350 FM
AAUSAT CUBESAT 2 28 May 08:32:35 08:36:20 33° 97° (E) 08:40:03 437.432
PRISM 28 May 08:39:08 08:41:12 14° 63° (ENE) 08:43:15 437.425
XW-2A 28 May 08:39:16 08:42:39 55° 286° (WNW) 08:46:02 145.665 - 145.685
STRAND 1 28 May 08:45:45 08:49:03 17° 269° (W) 08:52:21 437.568
AO-73 28 May 08:49:04 08:52:55 26° 95° (E) 08:56:47 145.935
FO-29 28 May 08:49:04 08:52:36 19° 61° (ENE) 08:56:13 435.910
UNISAT 6 28 May 09:03:46 09:06:53 20° 66° (ENE) 09:10:04 437.425
ZACube-1 28 May 09:03:49 09:08:10 42° 98° (E) 09:12:30 437.345
SEEDS 28 May 09:13:47 09:17:41 37° 289° (WNW) 09:21:33 437.485
RS-15 28 May 09:16:32 09:27:42 37° 34° (NE) 09:38:25 29.354- 29.394
CUBEBUG 2 28 May 09:24:26 09:28:47 42° 288° (WNW) 09:33:12 437.445
HO-68 28 May 09:27:28 09:34:11 44° 295° (WNW) 09:40:53 435.675
UWE-3 28 May 09:30:44 09:35:16 58° 286° (WNW) 09:39:51 435.000/436.395/437.385
EO-88 28 May 09:46:40 09:48:44 14° 92° (E) 09:50:46 145.990 - 145.960
Oscar 11 28 May 09:55:51 10:00:13 75° 284° (WNW) 10:04:32 .
TIGRISAT 28 May 10:06:38 10:10:54 87° 74° (ENE) 10:15:17 435.000
AAUSAT CUBESAT 2 28 May 10:08:31 10:11:34 20° 293° (WNW) 10:14:37 437.432
DELFI C3 28 May 10:09:41 10:13:24 40° 98° (E) 10:17:06 145.870
NO-84 28 May 10:10:47 10:14:12 22° 336° (NNW) 10:17:29 435.350 FM
PRISM 28 May 10:11:58 10:16:01 53° 259° (W) 10:20:04 437.425
AO-73 28 May 10:25:08 10:29:07 30° 291° (WNW) 10:33:06 145.935
FO-29 28 May 10:32:11 10:37:14 54° 260° (W) 10:42:29 435.910
UNISAT 6 28 May 10:39:22 10:43:20 37° 263° (W) 10:47:24 437.425
ZACube-1 28 May 10:40:48 10:44:08 20° 294° (WNW) 10:47:28 437.345
EO-79 28 May 10:45:36 10:48:16 17° 65° (ENE) 10:50:58 145.935-145.965
AIST 2D 28 May 10:47:33 10:50:37 28° 71° (ENE) 10:53:42 435.315
YUBILEINY 28 May 11:04:29 11:11:47 28° 67° (ENE) 11:19:00 435.215
EO-88 28 May 11:19:08 11:22:33 36° 288° (WNW) 11:25:55 145.990 - 145.960
NANOSAT C BR1 28 May 11:28:03 11:32:00 43° 72° (ENE) 11:35:59 145.865
RS-15 28 May 11:29:25 11:41:40 82° 241° (WSW) 11:53:14 29.354- 29.394
POLYITAN 1 28 May 11:34:18 11:38:24 56° 73° (ENE) 11:42:32 437.675
DUCHIFAT 1 28 May 11:37:36 11:41:37 49° 73° (ENE) 11:45:40 145.980
QB50P2 28 May 11:43:00 11:47:11 79° 76° (ENE) 11:51:25 145.880/145.840
DELFI C3 28 May 11:45:30 11:47:50 15° 294° (WNW) 11:50:10 145.870
BUGSAT 1 28 May 11:49:05 11:52:01 20° 67° (ENE) 11:54:58 437.445
NO-84 28 May 11:51:19 11:53:05 12° 357° (N) 11:54:47 435.350 FM
LO-87 28 May 11:55:36 11:59:10 77° 100° (E) 12:02:44 145.935 - 145.965
ESTCUBE 1 28 May 12:04:37 12:09:00 49° 99° (E) 12:13:20 437.505/2401.250
EO-79 28 May 12:19:43 12:23:41 43° 261° (W) 12:27:43 145.935-145.965
AIST 2D 28 May 12:21:35 12:23:52 16° 267° (W) 12:26:10 435.315
SPROUT 28 May 12:31:21 12:34:52 24° 95° (E) 12:38:22 437.525
Gurwin Techsat 1B 28 May 12:35:51 12:39:25 18° 62° (ENE) 12:42:58 435.225
BEESAT 3 28 May 12:37:19 12:39:50 16° 42° (NE) 12:42:18 437.485
Oscar 19 28 May 12:40:59 12:45:33 32° 67° (ENE) 12:50:06 437.125/150
AO-85 28 May 12:41:29 12:45:21 42° 53° (NE) 12:49:23 145.980
VELOX 1 28 May 12:51:50 12:55:57 39° 98° (E) 13:00:03 145.980
50 SAT 28 May 12:55:22 12:57:50 19° 95° (E) 13:00:17 437.505
YUBILEINY 28 May 13:00:32 13:09:16 67° 267° (W) 13:17:59 435.215
NANOSAT C BR1 28 May 13:05:24 13:07:55 16° 268° (W) 13:10:27 145.865
UKube-1 28 May 13:10:17 13:12:40 14° 92° (E) 13:15:03 .
POLYITAN 1 28 May 13:12:55 13:14:32 12° 270° (W) 13:16:10 437.675
AO-7 28 May 13:15:17 13:19:56 16° 47° (NE) 13:24:36 .
DUCHIFAT 1 28 May 13:15:28 13:17:34 13° 269° (W) 13:19:40 145.980
DX 1 28 May 13:21:03 13:24:48 28° 96° (E) 13:28:32 434.975-435.025
O/OREOS (USA 219) 28 May 13:21:21 13:25:49 55° 65° (ENE) 13:30:12 437.305
BUGSAT 1 28 May 13:23:35 13:27:09 31° 263° (W) 13:30:46 437.445
NO-84 28 May 13:29:21 13:32:03 17° 18° (NNE) 13:34:37 435.350 FM
ESTCUBE 1 28 May 13:42:30 13:45:24 17° 296° (WNW) 13:48:15 437.505/2401.250
RS-15 28 May 13:44:21 13:52:05 20° 263° (W) 13:59:37 29.354- 29.394
ITAMSAT 1 28 May 13:49:52 13:52:00 13° 58° (ENE) 13:54:07 435.822/435.867
BEESAT 2 28 May 13:58:26 14:02:11 34° 50° (NE) 14:05:52 435.950
SPROUT 28 May 14:07:02 14:10:44 29° 291° (WNW) 14:14:26 437.525
Gurwin Techsat 1B 28 May 14:13:36 14:18:50 61° 259° (WSW) 14:24:07 435.225
BEESAT 3 28 May 14:13:49 14:17:48 62° 241° (WSW) 14:21:43 437.485
Oscar 19 28 May 14:20:10 14:24:47 32° 263° (W) 14:29:26 437.125/150
AO-85 28 May 14:22:37 14:25:28 18° 248° (WSW) 14:28:24 145.980
50 SAT 28 May 14:27:56 14:30:39 23° 291° (WNW) 14:33:22 437.505
VELOX 1 28 May 14:28:58 14:32:07 20° 295° (WNW) 14:35:16 145.980
ITUPSAT 1 28 May 14:35:45 14:37:04 11° 89° (E) 14:38:22 437.325
UKube-1 28 May 14:44:48 14:48:57 49° 288° (WNW) 14:53:06 .
DX 1 28 May 14:57:17 15:00:53 26° 293° (WNW) 15:04:28 434.975-435.025
YUBILEINY 28 May 15:01:36 15:04:14 12° 288° (WNW) 15:06:53 435.215
O/OREOS (USA 219) 28 May 15:02:22 15:04:41 14° 262° (W) 15:07:01 437.305
AO-7 28 May 15:03:01 15:11:12 69° 68° (ENE) 15:19:27 .
BEESAT 28 May 15:05:42 15:09:33 24° 95° (E) 15:13:24 436.000
NO-84 28 May 15:06:28 15:10:18 67° 39° (NE) 15:13:46 435.350 FM
ITAMSAT 1 28 May 15:25:31 15:30:41 89° 258° (WSW) 15:35:54 435.822/435.867
BEESAT 2 28 May 15:36:33 15:39:46 23° 247° (WSW) 15:42:56 435.950
MOZHAYETS 4 28 May 16:05:49 16:10:26 57° 100° (E) 16:14:58
ITUPSAT 1 28 May 16:10:36 16:15:26 78° 286° (WNW) 16:20:14 437.325
BEESAT 28 May 16:43:01 16:47:24 37° 291° (WNW) 16:51:47 436.000
KKS-1 28 May 16:44:02 16:47:19 20° 94° (E) 16:50:36 437.445
DOVE 4 28 May 16:44:11 16:47:14 18° 67° (ENE) 16:50:14 437.250
NO-84 28 May 16:45:38 16:47:16 13° 238° (WSW) 16:48:52 435.350 FM
CUBESAT XI-V 28 May 16:57:50 17:02:07 36° 97° (E) 17:06:20 437.345
AO-7 28 May 16:57:55 17:04:33 26° 266° (W) 17:11:15 .
LilacSat-2 28 May 17:02:02 17:03:58 14° 65° (ENE) 17:05:55 437.200
STARS 28 May 17:09:10 17:11:52 16° 92° (E) 17:14:33 437.465
XW-2D 28 May 17:32:03 17:35:20 28° 70° (ENE) 17:38:39 145.860 - 145.880
CUTE-I 28 May 17:36:54 17:41:43 37° 68° (ENE) 17:46:34 437.470
XW-2B 28 May 17:39:53 17:43:19 33° 71° (ENE) 17:46:49 145.730 - 145.750
NUDT-PHONESAT 28 May 17:43:06 17:46:18 28° 70° (ENE) 17:49:33 437.300
MOZHAYETS 4 28 May 17:44:20 17:47:06 16° 297° (WNW) 17:49:50
XW-2F 28 May 17:50:37 17:54:15 44° 73° (ENE) 17:57:54 145.980 - 146.000
XW-2C 28 May 17:53:22 17:57:03 50° 74° (ENE) 18:00:47 145.795 - 145.815
KAITUO 1B 28 May 17:54:27 17:57:59 39° 73° (ENE) 18:01:33 145.475/437.950
PCSat 28 May 17:55:26 17:59:26 21° 106° (ESE) 18:03:27 145.827
HO-68 28 May 18:09:09 18:15:06 29° 60° (ENE) 18:21:04 435.675
KKS-1 28 May 18:19:53 18:23:59 37° 290° (WNW) 18:28:04 437.445
DOVE 4 28 May 18:20:21 18:24:41 42° 261° (W) 18:28:50 437.250
SEEDS 28 May 18:31:32 18:33:43 14° 64° (ENE) 18:35:54 437.485
LilacSat-2 28 May 18:34:09 18:37:50 45° 261° (W) 18:41:35 437.200
CUBESAT XI-V 28 May 18:35:37 18:39:16 23° 294° (WNW) 18:42:54 437.345
STARS 28 May 18:44:13 18:48:26 47° 288° (WNW) 18:52:39 437.465
CUBEBUG 2 28 May 18:47:53 18:50:19 15° 64° (ENE) 18:52:48 437.445
UWE-3 28 May 18:54:45 18:55:55 11° 61° (ENE) 18:57:06 435.000/436.395/437.385
XW-2D 28 May 19:06:43 19:09:32 20° 266° (W) 19:12:23 145.860 - 145.880
XW-2A 28 May 19:10:23 19:13:34 43° 74° (ENE) 19:16:48 145.665 - 145.685
ISS 28 May 19:10:57 19:13:35 22° 134° (SE) 19:16:13 437.550
XW-2B 28 May 19:15:08 19:17:37 16° 267° (W) 19:20:06 145.730 - 145.750
STRAND 1 28 May 19:15:44 19:19:22 19° 92° (E) 19:22:58 437.568
CUTE-I 28 May 19:17:17 19:21:48 28° 265° (W) 19:26:21 437.470
NUDT-PHONESAT 28 May 19:17:33 19:20:14 19° 266° (W) 19:22:56 437.300
CUTE 1.7 + AOD 2 28 May 19:19:53 19:24:09 71° 76° (ENE) 19:28:27 437.475
AAUSAT CUBESAT 2 28 May 19:22:55 19:26:13 23° 68° (ENE) 19:29:32 437.432
XW-2F 28 May 19:26:54 19:28:36 13° 269° (W) 19:30:20 145.980 - 146.000
KAITUO 1B 28 May 19:30:12 19:32:10 14° 268° (W) 19:34:10 145.475/437.950
XW-2C 28 May 19:30:23 19:31:33 11° 270° (W) 19:32:43 145.795 - 145.815
PCSat 28 May 19:37:06 19:42:24 54° 304° (NW) 19:47:45 145.827
AO-73 28 May 19:45:08 19:48:15 20° 66° (ENE) 19:51:25 145.935
Tancredo 1 28 May 19:52:14 19:55:18 85° 319° (NW) 19:58:23 437.200
HO-68 28 May 19:55:21 20:02:23 58° 258° (WSW) 20:09:30 435.675
ZACube-1 28 May 19:59:48 20:03:32 31° 70° (ENE) 20:07:23 437.345
SEEDS 28 May 20:04:45 20:08:55 55° 260° (W) 20:13:07 437.485
CUBEBUG 2 28 May 20:22:31 20:26:32 47° 261° (W) 20:30:40 437.445
UWE-3 28 May 20:27:33 20:31:43 72° 258° (WSW) 20:36:03 435.000/436.395/437.385
ISS 28 May 20:46:42 20:49:54 44° 330° (NNW) 20:53:05 437.550
Oscar 11 28 May 20:50:11 20:54:31 83° 76° (ENE) 20:58:54 .
STRAND 1 28 May 20:53:50 20:58:50 52° 289° (WNW) 21:03:49 437.568
DELFI C3 28 May 20:55:20 20:58:34 24° 69° (ENE) 21:01:48 145.870
AAUSAT CUBESAT 2 28 May 20:57:51 21:01:31 29° 264° (W) 21:05:13 437.432
